East Taunton, MA

4:44 AM EDT on August 27, 2016 (GMT -0400)
Taunton Municipal

Weather History for KTAN - April, 2014

Change the Weather History Date:

Tuesday, April 1, 2014

  Actual Average Record
Temperature  
Mean Temperature 43 °F -  
Max Temperature 52 °F 53 °F 71 °F (1999)
Min Temperature 34 °F 31 °F 18 °F (1957)
Degree Days  
Heating Degree Days 22    
Moisture  
Dew Point 28 °F    
Average Humidity 59    
Maximum Humidity 85    
Minimum Humidity 39    
Precipitation  
Precipitation 0.00 in - - ()
Sea Level Pressure  
Sea Level Pressure 30.04 in    
Wind  
Wind Speed 7 mph (North)    
Max Wind Speed 14 mph    
Max Gust Speed 24 mph    
Visibility 10 miles    
Events      
Averages and records for this station are not official NWS values.
T = Trace of Precipitation, MM = Missing Value Source: NWS Daily Summary

Daily Weather History Graph

Daily Weather History Graph

Search for Another Location

Airport or City:

Trip Planner

Search our weather history database for the weather conditions in past years. The results will help you decide how hot, cold, wet, or windy it might be!

Date:

Astronomy

Apr. 01, 2014 Rise Set
Actual Time 6:26 AM EDT 7:09 PM EDT
Civil Twilight 5:58 AM EDT 7:37 PM EDT
Nautical Twilight 5:25 AM EDT 8:11 PM EDT
Astronomical Twilight 4:51 AM EDT 8:45 PM EDT
Moon 7:25 AM EDT (4/1) 9:31 PM EDT (4/1)
Length of Visible Light 13h 38m
Length of Day
12h 42m
Waxing Crescent, 4% of the Moon is Illuminated
Apr 1
Waxing Crescent
Apr 7
First Quarter
Apr 15
Full
Apr 22
Last Quarter
Apr 29
New

Hourly Weather History & Observations

Time (EDT) Temp. Windchill Dew Point Humidity Pressure Visibility Wind Dir Wind Speed Gust Speed Precip Events Conditions
12:40 AM 39.0 °F 35.7 °F 30.0 °F 70% 29.98 in 10.0 mi NNW 4.6 mph - N/A   Overcast
12:52 AM 39.0 °F 35.7 °F 30.0 °F 70% 29.98 in 10.0 mi NNW 4.6 mph - N/A   Overcast
1:09 AM 39.0 °F 33.4 °F 30.0 °F 70% 29.98 in 10.0 mi NNW 8.1 mph - N/A   Overcast
1:52 AM 39.0 °F 31.4 °F 28.9 °F 67% 29.98 in 10.0 mi North 12.7 mph 18.4 mph N/A   Overcast
2:52 AM 39.0 °F 33.4 °F 28.0 °F 65% 29.99 in 10.0 mi North 8.1 mph - N/A   Overcast
3:52 AM 39.0 °F 33.4 °F 27.0 °F 62% 29.99 in 10.0 mi North 8.1 mph 17.3 mph N/A   Overcast
4:52 AM 37.9 °F 34.4 °F 27.0 °F 65% 29.99 in 10.0 mi NNW 4.6 mph - N/A   Overcast
5:52 AM 37.0 °F 31.0 °F 27.0 °F 67% 30.01 in 10.0 mi NNW 8.1 mph - N/A   Overcast
6:52 AM 37.0 °F 32.4 °F 27.0 °F 67% 30.02 in 10.0 mi North 5.8 mph - N/A   Overcast
7:52 AM 37.9 °F 32.7 °F 26.1 °F 62% 30.03 in 10.0 mi North 6.9 mph - N/A   Partly Cloudy
8:52 AM 39.9 °F 33.9 °F 26.1 °F 58% 30.05 in 10.0 mi North 9.2 mph 23.0 mph N/A   Mostly Cloudy
9:52 AM 41.0 °F 34.3 °F 27.0 °F 57% 30.06 in 10.0 mi North 11.5 mph 18.4 mph N/A   Overcast
10:52 AM 43.0 °F 36.8 °F 27.0 °F 53% 30.05 in 10.0 mi NE 11.5 mph 24.2 mph N/A   Overcast
11:52 AM 46.9 °F - 28.0 °F 48% 30.05 in 10.0 mi NNE 13.8 mph 20.7 mph N/A   Overcast
12:52 PM 48.9 °F - 28.0 °F 44% 30.05 in 10.0 mi North 11.5 mph 18.4 mph N/A   Mostly Cloudy
1:52 PM 50.0 °F - 28.0 °F 43% 30.04 in 10.0 mi NNE 9.2 mph - N/A   Partly Cloudy
2:52 PM 52.0 °F - 28.0 °F 40% 30.04 in 10.0 mi NE 8.1 mph - N/A   Clear
3:52 PM 52.0 °F - 28.0 °F 40% 30.03 in 10.0 mi Variable 6.9 mph - N/A   Clear
4:52 PM 51.1 °F - 27.0 °F 39% 30.04 in 10.0 mi ENE 8.1 mph - N/A   Clear
5:52 PM 50.0 °F - 27.0 °F 41% 30.05 in 10.0 mi East 6.9 mph - N/A   Clear
6:52 PM 46.0 °F 43.1 °F 26.1 °F 46% 30.04 in 10.0 mi East 5.8 mph - N/A   Clear
7:52 PM 43.0 °F - 27.0 °F 53% 30.06 in 10.0 mi Calm Calm - N/A   Clear
8:52 PM 39.0 °F - 30.0 °F 70% 30.09 in 10.0 mi Calm Calm - N/A   Clear
9:52 PM 37.0 °F - 30.0 °F 76% 30.10 in 10.0 mi Calm Calm - N/A   Clear
10:52 PM 34.0 °F - 30.0 °F 85% 30.11 in 10.0 mi Calm Calm - N/A   Clear
11:52 PM 37.0 °F - 30.0 °F 76% 30.11 in 10.0 mi Calm Calm - N/A   Clear